Wind_Speed
14 13 13 12 11 8 6 6 10 16 18 19 16 16 16 16 15 14 13 12 11 11 11 11 11 10 10 10 10 10 10 11 11 11 11 11 11 11 11 10 9 8 7 6 5 5 4 3 3
14 14 14 12 11 7 3 7 14 19 20 19 16 16 17 17 17 16 15 13 13 12 12 11 12 12 12 12 12 12 12 12 12 12 12 12 12 12 12 12 11 10 9 8 7 6 6 5 4
15 15 14 13 10 6 6 13 17 20 20 18 15 16 19 17 17 16 14 14 14 13 13 12 12 12 12 13 13 13 13 13 13 13 13 13 13 14 14 14 12 12 11 10 9 8 7 6 6
15 15 14 13 10 7 11 16 19 17 17 17 16 18 19 19 18 16 15 15 15 14 14 13 13 13 13 13 13 13 14 14 15 15 14 14 15 15 15 15 14 13 12 11 10 10 9 8 8
15 14 13 11 9 11 17 19 19 15 16 17 17 20 20 19 19 18 16 15 15 14 14 13 13 13 14 14 14 14 14 15 16 16 16 15 15 15 16 16 15 15 14 13 13 11 10 10 10
14 13 12 9 8 15 18 21 20 17 17 17 18 21 21 19 18 17 17 16 15 15 14 13 13 14 14 14 14 14 15 15 16 16 16 17 17 17 17 17 16 16 15 15 14 13 13 12 12
13 12 10 7 9 15 19 20 18 18 18 18 20 22 22 20 18 17 16 16 15 14 14 13 13 13 13 14 14 14 15 15 16 16 17 17 17 18 18 17 17 17 16 16 15 15 15 14 13
13 13 11 10 13 17 20 21 19 18 20 19 20 22 23 18 17 16 16 16 15 15 14 13 13 12 13 14 15 16 16 16 16 17 18 18 18 18 18 18 18 18 17 17 17 17 17 16 16
12 12 10 9 13 17 20 20 19 19 21 21 22 23 21 17 16 16 16 17 17 16 15 13 13 14 14 14 15 16 17 18 18 18 19 19 19 19 19 19 19 19 19 19 19 18 18 18 17
11 10 8 12 15 17 18 18 18 18 21 23 24 24 21 18 18 17 17 17 17 17 16 14 14 14 15 15 17 17 18 19 19 20 20 20 21 21 21 20 20 21 20 20 20 20 19 19 19
12 10 13 20 21 20 17 17 19 17 19 22 23 22 22 18 18 19 19 17 17 17 15 14 15 15 15 17 18 18 19 20 20 21 21 22 22 22 22 22 22 22 22 22 22 21 21 21 20
14 15 19 21 23 21 18 17 18 18 18 19 19 21 20 18 19 19 20 19 17 16 16 14 16 16 16 18 19 19 19 20 20 21 22 23 23 23 22 22 23 22 22 23 23 23 23 22 21
14 16 19 19 20 19 19 19 19 18 22 20 19 21 19 18 19 20 20 19 19 18 15 15 16 16 17 19 19 20 20 21 21 22 22 23 23 23 24 24 23 23 23 23 24 24 23 22 21
13 15 15 17 16 17 16 17 17 17 19 20 19 20 20 19 20 22 21 22 20 18 17 17 18 18 19 20 21 22 22 22 23 23 23 23 24 25 26 26 25 24 24 24 25 24 24 23 23
13 14 13 14 14 14 13 15 15 17 18 18 18 19 19 20 22 22 22 21 20 18 18 18 19 19 20 20 21 23 24 24 25 25 25 25 24 25 25 25 26 27 26 26 26 25 25 25 25
11 11 12 12 12 13 12 13 15 16 16 17 18 19 20 21 23 22 21 21 20 20 20 19 19 20 21 22 23 23 25 26 26 26 26 26 26 26 26 27 27 28 27 27 27 26 26 27 27
7 9 12 13 12 12 11 14 19 19 16 16 18 18 19 20 21 20 20 21 21 21 21 21 21 21 22 23 24 24 25 26 27 26 26 27 27 27 28 29 29 29 30 29 29 28 28 27 28
7 9 12 15 13 12 11 15 19 19 18 18 18 18 19 20 20 20 21 21 22 22 22 22 22 23 23 24 25 26 26 27 28 28 28 28 28 29 29 30 30 31 30 30 30 31 30 29 29
10 11 13 15 14 13 14 16 18 18 15 16 18 19 18 19 20 20 20 20 22 22 22 22 23 24 25 26 26 27 28 28 29 29 29 30 30 30 30 31 31 32 32 32 32 31 30 30 31
13 12 13 14 15 15 14 16 17 18 16 17 18 18 19 20 20 20 21 21 22 22 23 24 25 26 26 27 27 27 28 29 30 30 30 31 31 31 31 32 33 33 33 33 33 33 32 32 32
14 14 14 15 15 14 13 16 18 19 16 16 17 19 20 20 20 21 22 22 22 23 24 25 25 27 27 28 28 28 29 30 30 31 31 32 32 32 32 33 34 34 33 33 33 33 32 32 33
12 13 14 15 14 14 14 17 20 20 19 18 18 20 20 21 21 21 22 23 24 25 25 26 27 28 28 28 29 29 30 31 31 32 32 32 32 31 32 32 33 34 33 32 32 32 32 31 32
11 13 16 16 16 16 15 16 21 22 21 19 18 19 20 21 22 22 24 24 25 26 27 28 28 29 29 29 30 30 30 31 31 31 32 32 31 31 31 31 31 32 31 31 31 32 32 31 31
11 13 14 15 16 19 17 18 22 22 19 19 17 18 20 21 23 24 25 25 25 26 27 28 29 29 30 30 31 31 31 31 30 31 31 31 31 31 31 31 31 31 31 31 31 32 31 31 31
10 10 11 14 18 19 18 20 21 20 18 18 18 18 20 22 23 24 24 24 25 26 27 28 28 29 30 30 30 31 31 30 30 30 31 30 30 30 31 32 31 31 31 31 30 31 31 31 31
9 9 12 15 15 14 14 17 17 17 18 19 18 20 21 21 22 23 23 24 25 26 27 28 29 29 30 30 30 30 31 31 30 31 31 31 30 31 31 32 31 31 31 31 31 31 31 31 30
10 10 13 14 14 15 13 15 15 18 18 17 18 20 21 21 22 22 23 25 26 26 27 28 29 29 29 29 30 30 30 30 30 31 31 31 31 31 31 31 31 31 31 31 31 31 31 31 30
11 12 13 12 14 13 14 17 20 19 16 16 19 20 20 21 23 23 24 25 26 26 27 27 28 28 29 29 29 28 28 29 29 29 30 31 31 31 31 31 31 31 31 31 31 31 31 31 30
12 12 14 13 15 15 17 20 20 20 18 18 19 19 21 23 24 24 25 26 27 27 27 27 27 27 28 27 27 28 28 29 29 29 29 29 30 30 30 30 31 31 30 30 31 30 30 30 30
14 13 14 15 15 16 18 20 21 21 20 18 20 21 22 24 24 25 26 27 27 27 27 27 26 25 26 26 26 26 26 27 27 27 27 28 28 28 29 28 28 29 29 29 30 30 30 30 30
Wind_Direction
260 258 253 249 244 235 217 203 222 239 240 234 232 228 230 235 242 241 247 250 248 248 247 248 247 248 247 246 246 245 246 247 247 248 250 250 249 245 242 244 246 247 248 250 254 259 263 266 267
258 255 251 245 239 226 223 227 233 240 243 244 238 231 236 242 244 246 248 250 250 249 247 249 250 251 249 249 251 251 250 250 251 249 253 254 253 250 246 247 249 251 252 254 255 258 260 261 263
256 252 249 243 232 204 207 228 235 240 246 247 241 236 238 241 243 246 248 252 250 249 250 252 253 251 251 251 253 254 253 253 252 251 254 256 257 257 254 251 252 253 252 253 255 258 259 261 261
253 249 244 239 220 198 213 227 233 241 248 246 237 240 239 243 246 249 251 253 253 253 253 255 255 252 254 255 256 256 257 256 255 253 254 255 257 259 256 253 251 253 254 252 255 258 258 261 261
250 246 239 234 221 210 224 236 240 237 242 245 241 243 242 240 247 250 251 255 256 257 257 257 256 255 256 258 258 258 259 260 258 255 256 256 257 257 256 253 253 255 255 255 256 257 258 259 260
245 239 233 228 226 226 229 238 241 239 242 247 247 249 249 240 243 250 255 255 256 258 257 258 259 257 257 258 258 259 259 261 260 258 258 258 258 257 256 255 255 256 256 256 256 258 258 258 260
242 231 223 216 233 239 239 240 241 237 242 244 244 245 248 242 243 252 256 254 254 258 260 260 260 259 258 259 259 259 258 260 261 261 263 261 260 259 259 258 256 255 255 256 256 257 259 258 259
239 230 212 205 227 238 245 243 238 235 236 238 240 243 248 241 244 248 256 257 258 258 259 261 260 259 261 260 259 258 260 263 263 263 264 263 262 262 260 258 256 256 257 258 257 257 258 259 259
233 225 209 207 229 238 247 245 238 236 235 236 240 240 250 246 239 248 254 259 259 258 261 263 262 261 263 263 261 261 263 265 265 264 264 264 263 263 260 257 257 257 257 258 258 256 257 258 259
219 205 203 214 219 231 243 242 241 236 237 240 243 242 249 250 251 253 259 256 255 261 263 265 267 266 263 265 265 265 266 264 263 264 265 264 263 263 260 258 259 258 257 258 258 256 257 258 259
208 203 212 219 219 224 233 234 235 230 237 236 242 247 251 254 255 254 260 261 261 263 260 262 268 267 267 268 266 265 265 264 265 264 265 266 265 263 260 259 259 260 259 259 259 258 257 258 258
212 214 222 229 230 229 229 234 235 231 234 238 241 245 249 253 259 256 259 263 260 263 269 265 271 271 271 269 267 264 266 265 267 264 267 268 266 264 262 261 261 263 262 258 259 260 259 259 259
226 227 228 232 236 231 229 232 234 237 238 243 246 249 252 255 254 255 258 260 259 264 270 273 274 274 276 274 271 267 270 269 268 267 266 267 266 265 261 261 263 263 263 262 262 261 260 259 261
233 233 235 236 237 234 230 234 236 238 243 246 252 255 257 250 254 255 257 264 265 268 277 281 284 285 282 278 276 275 274 273 272 270 269 267 269 268 266 262 263 265 266 264 262 261 261 262 262
228 232 236 237 235 239 235 237 244 242 249 253 256 258 259 261 262 261 266 271 274 280 285 283 285 286 283 279 277 275 273 273 272 271 273 271 271 270 267 266 266 267 269 265 265 265 264 263 265
222 224 226 236 235 240 236 235 243 246 253 255 258 260 263 268 270 275 277 279 282 287 287 286 284 284 282 279 277 274 273 272 272 273 274 273 272 271 270 269 267 267 268 266 264 268 267 265 265
219 222 219 231 237 240 225 228 243 252 256 257 262 264 266 274 275 276 280 282 285 288 287 286 285 283 282 280 277 274 272 271 272 274 275 274 272 271 270 269 268 269 269 265 264 264 267 266 264
227 239 228 225 232 229 221 230 242 251 253 256 261 265 267 272 274 276 278 281 283 285 285 284 284 283 282 280 278 276 274 273 273 274 275 275 274 273 271 270 269 268 269 267 266 265 266 266 265
211 224 228 231 233 223 222 236 246 257 256 259 264 265 266 269 270 274 275 279 280 281 282 281 283 283 282 281 279 278 276 275 274 274 275 275 275 273 272 272 270 269 269 268 267 266 265 265 264
206 210 221 231 236 231 227 241 251 260 257 258 263 264 268 270 274 275 278 279 279 280 280 279 280 281 281 281 280 279 278 276 277 276 276 275 274 274 274 274 273 271 269 269 268 267 266 265 263
209 210 223 229 234 238 235 238 249 256 255 255 261 264 267 269 273 276 280 279 279 279 279 280 280 281 281 281 281 279 277 277 278 278 277 276 276 274 273 273 273 271 271 271 269 268 267 265 261
211 218 223 231 234 240 239 242 248 255 259 256 261 265 267 273 274 278 280 279 279 279 279 281 282 282 282 282 282 281 279 277 277 277 277 276 275 274 273 273 272 271 269 269 270 269 268 265 262
216 219 223 231 233 240 243 247 258 262 264 258 257 270 275 278 281 280 281 281 280 281 281 282 282 281 281 282 282 282 281 279 277 277 277 276 275 274 273 273 271 270 268 267 268 269 270 267 263
212 223 228 232 235 243 242 247 256 262 268 266 265 279 286 285 284 283 283 283 283 283 284 284 283 282 282 283 282 282 282 281 279 278 279 278 276 275 273 273 271 271 270 268 268 270 270 270 268
222 231 246 252 240 238 238 246 253 262 271 276 282 288 289 287 286 286 286 286 286 285 284 284 284 283 282 283 282 283 283 282 281 280 279 278 276 274 272 273 272 272 272 270 268 270 271 270 270
228 235 256 267 274 273 258 250 250 258 275 280 285 290 290 290 289 288 288 288 289 289 288 287 286 285 284 283 284 285 284 283 282 281 280 279 278 276 274 274 272 272 272 271 270 269 271 271 270
232 237 252 267 274 279 267 262 259 267 275 277 286 289 291 290 292 291 291 291 292 292 290 289 288 288 286 284 285 286 286 286 284 283 281 281 280 279 277 275 273 272 270 270 271 270 271 271 268
243 237 250 256 269 273 281 280 271 275 281 288 294 293 292 294 295 294 294 295 294 294 294 292 290 289 289 288 287 286 286 286 286 284 282 280 279 278 277 276 274 272 271 270 269 270 271 270 268
248 250 257 258 259 269 279 282 287 281 287 293 297 293 294 296 295 295 295 295 295 295 295 294 293 292 291 291 289 287 287 287 286 285 283 281 279 278 277 276 275 274 272 270 269 269 268 269 269
239 245 251 258 260 262 272 277 284 288 293 295 297 296 297 297 297 296 296 296 296 295 295 295 295 294 294 293 292 291 291 290 288 286 284 283 282 280 278 276 275 275 274 271 269 268 268 268 268
Height
5877 5879 5880 5882 5885 5887 5889 5892 5894 5893 5893 5892 5892 5893 5892 5892 5892 5895 5893 5892 5893 5893 5894 5894 5895 5895 5895 5896 5896 5897 5897 5898 5898 5899 5900 5900 5900 5900 5901 5901 5901 5901 5901 5901 5901 5901 5900 5900 5900
5875 5876 5878 5880 5883 5885 5889 5892 5892 5890 5889 5890 5891 5891 5890 5890 5890 5891 5891 5891 5892 5892 5893 5893 5893 5894 5894 5895 5895 5895 5896 5896 5897 5898 5898 5898 5899 5899 5899 5900 5900 5900 5900 5900 5900 5900 5900 5900 5900
5872 5873 5876 5878 5880 5883 5888 5890 5889 5887 5886 5888 5889 5889 5888 5888 5887 5888 5889 5890 5890 5890 5891 5891 5892 5892 5893 5893 5894 5894 5894 5895 5895 5896 5896 5896 5897 5897 5898 5898 5898 5898 5898 5898 5899 5899 5899 5899 5899
5869 5871 5873 5877 5878 5881 5884 5885 5883 5884 5885 5885 5886 5886 5885 5885 5885 5886 5887 5888 5888 5888 5889 5890 5890 5891 5891 5891 5892 5892 5893 5893 5893 5893 5894 5894 5895 5895 5896 5896 5896 5896 5897 5897 5897 5898 5898 5898 5898
5865 5868 5871 5873 5876 5880 5882 5881 5880 5882 5882 5882 5883 5882 5881 5882 5884 5885 5885 5885 5886 5886 5887 5888 5888 5889 5889 5889 5890 5890 5890 5891 5891 5891 5892 5892 5892 5893 5893 5894 5894 5894 5894 5895 5895 5896 5896 5897 5897
5863 5865 5868 5870 5875 5877 5878 5878 5878 5880 5880 5880 5880 5879 5877 5878 5880 5882 5883 5883 5883 5884 5884 5885 5885 5886 5886 5887 5887 5888 5888 5888 5888 5889 5889 5890 5890 5890 5891 5891 5891 5892 5892 5893 5893 5894 5894 5895 5895
5860 5862 5865 5869 5874 5875 5875 5875 5876 5877 5878 5878 5876 5875 5872 5874 5877 5879 5880 5880 5879 5881 5881 5882 5882 5883 5883 5884 5885 5885 5885 5886 5886 5886 5887 5887 5887 5887 5888 5888 5888 5889 5889 5890 5890 5891 5892 5892 5893
5856 5859 5862 5866 5871 5872 5870 5871 5872 5874 5874 5874 5872 5872 5868 5872 5875 5877 5877 5876 5877 5878 5878 5879 5879 5880 5881 5881 5882 5882 5882 5883 5883 5883 5883 5884 5884 5884 5885 5885 5885 5886 5886 5887 5887 5888 5889 5890 5891
5854 5857 5860 5865 5868 5868 5866 5867 5868 5870 5870 5870 5869 5869 5865 5867 5870 5873 5873 5873 5873 5874 5875 5875 5875 5876 5877 5878 5878 5879 5879 5879 5880 5880 5880 5880 5881 5881 5882 5882 5882 5883 5883 5883 5884 5885 5886 5887 5888
5851 5855 5859 5862 5864 5864 5863 5864 5864 5866 5865 5865 5865 5865 5865 5867 5868 5868 5869 5868 5867 5869 5870 5871 5871 5872 5874 5875 5875 5875 5875 5875 5876 5876 5876 5877 5877 5878 5878 5878 5879 5879 5879 5880 5881 5882 5883 5883 5884
5848 5851 5854 5856 5858 5859 5860 5860 5860 5860 5860 5860 5861 5862 5863 5863 5864 5864 5866 5865 5864 5865 5865 5867 5869 5869 5870 5871 5871 5871 5871 5871 5871 5872 5872 5872 5873 5873 5874 5875 5875 5875 5875 5876 5877 5878 5879 5880 5880
5845 5848 5849 5851 5853 5854 5856 5856 5857 5858 5857 5854 5856 5857 5859 5860 5860 5862 5863 5864 5862 5862 5861 5862 5865 5865 5866 5866 5865 5866 5866 5866 5866 5867 5867 5868 5868 5869 5869 5870 5870 5871 5871 5872 5873 5873 5874 5875 5876
5842 5844 5846 5847 5848 5850 5852 5852 5853 5854 5855 5854 5854 5856 5856 5857 5856 5857 5857 5859 5859 5859 5857 5859 5860 5861 5862 5862 5861 5860 5861 5861 5861 5862 5862 5862 5863 5864 5864 5865 5866 5866 5867 5867 5868 5868 5869 5870 5872
5840 5841 5842 5844 5845 5846 5848 5849 5849 5851 5852 5851 5852 5853 5853 5852 5852 5852 5853 5854 5855 5855 5855 5857 5857 5858 5859 5859 5858 5858 5858 5859 5859 5858 5857 5857 5859 5859 5860 5860 5860 5861 5862 5862 5863 5863 5864 5866 5867
5837 5839 5840 5841 5843 5843 5845 5847 5847 5848 5848 5847 5849 5850 5849 5848 5849 5849 5851 5850 5850 5851 5852 5853 5853 5854 5855 5855 5855 5854 5854 5854 5855 5854 5852 5852 5853 5854 5854 5855 5856 5856 5857 5857 5857 5857 5858 5860 5862
5835 5836 5839 5840 5840 5842 5845 5846 5845 5845 5846 5845 5846 5846 5846 5846 5846 5847 5849 5848 5848 5848 5848 5848 5849 5849 5850 5850 5850 5850 5849 5849 5849 5848 5848 5848 5848 5849 5849 5850 5851 5851 5852 5851 5852 5853 5853 5854 5856
5833 5835 5837 5839 5839 5841 5842 5843 5843 5843 5843 5843 5843 5843 5843 5843 5843 5844 5845 5845 5845 5845 5845 5845 5845 5845 5845 5845 5845 5845 5844 5844 5844 5843 5843 5842 5843 5843 5844 5844 5845 5846 5846 5846 5847 5847 5848 5849 5850
5834 5835 5837 5838 5837 5839 5841 5840 5840 5841 5841 5841 5841 5841 5842 5842 5841 5841 5841 5842 5842 5842 5842 5842 5841 5841 5840 5840 5840 5839 5839 5839 5838 5838 5838 5838 5837 5837 5838 5838 5839 5839 5839 5840 5840 5840 5842 5843 5844
5833 5836 5837 5836 5836 5837 5838 5838 5837 5838 5838 5838 5838 5838 5839 5839 5838 5838 5837 5838 5839 5838 5838 5838 5837 5836 5835 5835 5834 5833 5833 5833 5833 5832 5832 5832 5832 5831 5831 5831 5832 5832 5833 5833 5833 5834 5835 5836 5837
5831 5834 5835 5835 5834 5835 5836 5836 5835 5835 5835 5835 5835 5834 5834 5834 5834 5835 5834 5835 5834 5834 5834 5833 5832 5831 5830 5829 5828 5827 5827 5826 5826 5826 5826 5826 5825 5825 5825 5825 5825 5825 5826 5826 5826 5827 5827 5829 5830
5828 5831 5833 5833 5831 5832 5834 5834 5833 5832 5831 5832 5831 5830 5829 5830 5831 5831 5831 5831 5830 5829 5829 5828 5827 5826 5825 5823 5822 5822 5821 5820 5820 5820 5819 5819 5818 5818 5818 5818 5818 5818 5818 5819 5819 5820 5821 5821 5823
5826 5828 5829 5830 5830 5830 5832 5831 5830 5828 5828 5828 5827 5826 5825 5826 5826 5827 5827 5826 5825 5824 5823 5822 5821 5820 5819 5818 5817 5815 5815 5814 5814 5813 5812 5812 5811 5811 5811 5811 5811 5811 5811 5812 5812 5813 5814 5814 5815
5823 5824 5826 5827 5827 5827 5828 5827 5826 5823 5823 5822 5823 5823 5822 5823 5822 5822 5822 5821 5820 5819 5818 5817 5815 5814 5813 5812 5811 5809 5808 5807 5807 5806 5805 5804 5804 5804 5804 5804 5803 5803 5804 5804 5805 5806 5806 5807 5808
5820 5822 5823 5823 5824 5824 5824 5823 5822 5818 5819 5818 5818 5819 5820 5819 5819 5818 5817 5816 5815 5814 5812 5811 5810 5808 5807 5805 5804 5803 5802 5800 5800 5799 5798 5797 5796 5796 5796 5796 5796 5796 5796 5797 5798 5798 5799 5800 5801
5818 5820 5821 5820 5819 5819 5819 5819 5817 5815 5814 5814 5815 5816 5816 5815 5814 5813 5812 5811 5810 5808 5807 5805 5803 5802 5800 5799 5797 5796 5795 5793 5792 5791 5791 5790 5789 5789 5789 5789 5788 5788 5789 5789 5790 5791 5792 5793 5793
5816 5819 5819 5818 5815 5814 5814 5814 5812 5811 5811 5811 5812 5812 5812 5811 5810 5809 5807 5806 5804 5802 5800 5799 5797 5795 5793 5792 5790 5789 5787 5786 5785 5784 5783 5782 5782 5781 5781 5781 5781 5781 5781 5782 5783 5783 5784 5785 5786
5815 5816 5816 5815 5815 5814 5811 5810 5807 5807 5808 5809 5809 5809 5808 5806 5805 5804 5802 5800 5798 5796 5794 5792 5790 5788 5786 5784 5783 5781 5779 5778 5776 5776 5775 5774 5774 5773 5773 5773 5773 5773 5773 5774 5775 5775 5776 5777 5778
5813 5813 5813 5813 5812 5811 5811 5808 5806 5804 5804 5805 5805 5805 5804 5802 5801 5799 5797 5795 5793 5790 5788 5786 5783 5781 5779 5777 5775 5773 5771 5770 5768 5767 5767 5766 5765 5765 5765 5764 5765 5765 5765 5766 5767 5767 5768 5769 5770
5810 5811 5810 5810 5810 5810 5808 5807 5802 5802 5801 5801 5802 5800 5799 5798 5796 5794 5791 5789 5787 5784 5782 5779 5777 5774 5772 5770 5768 5766 5764 5762 5760 5759 5758 5758 5757 5757 5757 5756 5757 5757 5757 5758 5759 5760 5761 5761 5762
5806 5807 5807 5808 5807 5807 5806 5806 5801 5799 5797 5795 5796 5796 5794 5792 5790 5788 5785 5783 5780 5777 5775 5773 5770 5768 5766 5763 5761 5759 5757 5755 5753 5752 5751 5750 5750 5749 5749 5749 5749 5749 5749 5750 5750 5751 5752 5753 5754